SWR1DL LSZH-LIMC

Flight info

Callsign SWR1DL
Flight time 0h 40m
Altitude 23000
Route VEBIT T53 GERSA N850 DEGAD Z424 AKASU/N0379F190 Z424 RIXUV
Aircraft A321/M-SDE3FGHIRWY/LB1

Departure

Time 2026-05-05 18:53
Airport Zürich Airport (LSZH)

Arrival

Time 2026-05-05 19:33
Airport Milan Malpensa International Airport (LIMC)
Time Latitude Longitude Altitude Speed Heading
2026-05-05 17:54 47.45349 8.55701 1404 ft 0 kts
2026-05-05 18:37 47.45341 8.55699 1404 ft 2 kts
2026-05-05 18:37 47.45327 8.55697 1404 ft 2 kts
2026-05-05 18:37 47.45315 8.55695 1403 ft 0 kts
2026-05-05 18:38 47.45303 8.55694 1403 ft 2 kts 351°
2026-05-05 18:38 47.45289 8.55700 1403 ft 2 kts 334°
2026-05-05 18:38 47.45277 8.55712 1403 ft 2 kts 315°
2026-05-05 18:38 47.45267 8.55729 1404 ft 2 kts 297°
2026-05-05 18:39 47.45262 8.55749 1404 ft 1 kts 280°
2026-05-05 18:39 47.45262 8.55752 1404 ft 1 kts 278°
2026-05-05 18:39 47.45264 8.55735 1404 ft 0 kts 278°
2026-05-05 18:41 47.45264 8.55737 1404 ft 1 kts 278°
2026-05-05 18:41 47.45262 8.55758 1404 ft 2 kts 276°
2026-05-05 18:41 47.45261 8.55780 1404 ft 2 kts 277°
2026-05-05 18:41 47.45259 8.55802 1405 ft 2 kts 277°
2026-05-05 18:42 47.45258 8.55817 1405 ft 1 kts 277°
2026-05-05 18:42 47.45258 8.55818 1405 ft 0 kts 277°
2026-05-05 18:43 47.45258 8.55815 1405 ft 1 kts 277°
2026-05-05 18:44 47.45261 8.55773 1404 ft 6 kts 277°
2026-05-05 18:44 47.45268 8.55683 1403 ft 10 kts 276°
2026-05-05 18:44 47.45291 8.55576 1402 ft 11 kts 314°
2026-05-05 18:44 47.45365 8.55515 1401 ft 12 kts 334°
2026-05-05 18:45 47.45451 8.55456 1401 ft 14 kts 336°
2026-05-05 18:45 47.45520 8.55481 1401 ft 11 kts 73°
2026-05-05 18:45 47.45519 8.55591 1403 ft 10 kts 96°
2026-05-05 18:45 47.45512 8.55686 1405 ft 8 kts 97°
2026-05-05 18:46 47.45506 8.55766 1407 ft 7 kts 97°
2026-05-05 18:46 47.45500 8.55847 1408 ft 8 kts 97°
2026-05-05 18:46 47.45493 8.55949 1409 ft 11 kts 96°
2026-05-05 18:46 47.45484 8.56071 1410 ft 12 kts 96°
2026-05-05 18:47 47.45480 8.56196 1411 ft 11 kts 81°
2026-05-05 18:47 47.45523 8.56297 1412 ft 11 kts 50°
2026-05-05 18:47 47.45573 8.56386 1413 ft 11 kts 51°
2026-05-05 18:47 47.45593 8.56493 1414 ft 11 kts 92°
2026-05-05 18:48 47.45586 8.56599 1416 ft 10 kts 96°
2026-05-05 18:48 47.45578 8.56697 1417 ft 9 kts 96°
2026-05-05 18:48 47.45572 8.56783 1419 ft 7 kts 97°
2026-05-05 18:48 47.45567 8.56856 1420 ft 6 kts 96°
2026-05-05 18:49 47.45564 8.56901 1421 ft 0 kts 95°
2026-05-05 18:49 47.45564 8.56900 1421 ft 0 kts 95°
2026-05-05 18:51 47.45563 8.56904 1421 ft 2 kts 95°
2026-05-05 18:51 47.45575 8.56982 1422 ft 12 kts 53°
2026-05-05 18:51 47.45647 8.57017 1423 ft 7 kts 328°
2026-05-05 18:52 47.45669 8.56937 1422 ft 9 kts 278°
2026-05-05 18:52 47.45684 8.56709 1418 ft 55 kts 276°
2026-05-05 18:52 47.45755 8.55707 1406 ft 136 kts 276°
2026-05-05 18:52 47.45875 8.54096 1748 ft 167 kts 274°
2026-05-05 18:53 47.45991 8.52420 2518 ft 170 kts 274°
2026-05-05 18:53 47.46109 8.50735 3364 ft 167 kts 274°
2026-05-05 18:53 47.46228 8.49064 3961 ft 161 kts 272°
2026-05-05 18:53 47.46066 8.47417 4240 ft 170 kts 239°
2026-05-05 18:54 47.45197 8.46213 4533 ft 180 kts 211°
2026-05-05 18:54 47.44145 8.45109 4836 ft 194 kts 225°
2026-05-05 18:54 47.43268 8.43474 5114 ft 213 kts 234°
2026-05-05 18:54 47.42388 8.41604 5442 ft 231 kts 235°
2026-05-05 18:55 47.41433 8.39601 5817 ft 248 kts 234°
2026-05-05 18:55 47.40383 8.37459 6279 ft 262 kts 233°
2026-05-05 18:55 47.39297 8.35293 6980 ft 265 kts 233°
2026-05-05 18:55 47.38262 8.33088 7694 ft 267 kts 238°
2026-05-05 18:56 47.37210 8.30795 8345 ft 271 kts 224°
2026-05-05 18:56 47.35593 8.29465 8945 ft 276 kts 191°
2026-05-05 18:56 47.33697 8.29669 9606 ft 282 kts 161°
2026-05-05 18:56 47.31959 8.31060 10256 ft 287 kts 149°
2026-05-05 18:57 47.30215 8.32644 10630 ft 301 kts 151°
2026-05-05 18:57 47.28384 8.34210 10934 ft 316 kts 152°
2026-05-05 18:57 47.26417 8.35816 11215 ft 331 kts 153°
2026-05-05 18:57 47.24339 8.37466 11537 ft 344 kts 153°
2026-05-05 18:58 47.22200 8.39139 11989 ft 352 kts 153°
2026-05-05 18:58 47.20051 8.40809 12570 ft 355 kts 153°
2026-05-05 18:58 47.17872 8.42496 13172 ft 357 kts 153°
2026-05-05 18:58 47.15660 8.44205 13750 ft 359 kts 154°
2026-05-05 18:59 47.13433 8.45921 14317 ft 362 kts 154°
2026-05-05 18:59 47.11202 8.47638 14865 ft 365 kts 154°
2026-05-05 18:59 47.08953 8.49365 15393 ft 368 kts 154°
2026-05-05 18:59 47.06679 8.51103 15912 ft 370 kts 155°
2026-05-05 19:00 47.04301 8.52532 16413 ft 371 kts 163°
2026-05-05 19:00 47.01815 8.53453 16922 ft 370 kts 172°
2026-05-05 19:00 46.99290 8.53928 17418 ft 371 kts 176°
2026-05-05 19:00 46.96698 8.54301 17932 ft 373 kts 176°
2026-05-05 19:01 46.94129 8.54655 18402 ft 375 kts 176°
2026-05-05 19:01 46.91509 8.55019 18783 ft 380 kts 176°
2026-05-05 19:01 46.88845 8.55392 18999 ft 388 kts 176°
2026-05-05 19:01 46.86171 8.55771 19372 ft 392 kts 176°
2026-05-05 19:02 46.83460 8.56161 19824 ft 394 kts 176°
2026-05-05 19:02 46.80735 8.56551 20271 ft 395 kts 176°
2026-05-05 19:02 46.77994 8.56944 20709 ft 397 kts 176°
2026-05-05 19:02 46.75211 8.57344 21134 ft 399 kts 177°
2026-05-05 19:03 46.72479 8.57733 21519 ft 402 kts 176°
2026-05-05 19:03 46.69677 8.58132 21921 ft 404 kts 177°
2026-05-05 19:03 46.66888 8.58530 22314 ft 406 kts 177°
2026-05-05 19:03 46.64070 8.58931 22712 ft 407 kts 177°
2026-05-05 19:04 46.61276 8.59328 22938 ft 409 kts 177°
2026-05-05 19:04 46.58436 8.59733 22939 ft 409 kts 177°
2026-05-05 19:04 46.55620 8.60133 22941 ft 409 kts 177°
2026-05-05 19:04 46.52804 8.60532 22946 ft 408 kts 177°
2026-05-05 19:05 46.49958 8.60938 22788 ft 407 kts 177°
2026-05-05 19:05 46.47143 8.61306 22521 ft 404 kts 180°
2026-05-05 19:05 46.44387 8.61024 22256 ft 398 kts 192°
2026-05-05 19:05 46.41771 8.59902 22003 ft 395 kts 203°
2026-05-05 19:06 46.39362 8.58056 21745 ft 392 kts 211°
2026-05-05 19:06 46.37046 8.55991 21482 ft 389 kts 212°
2026-05-05 19:06 46.34742 8.53911 21218 ft 387 kts 212°
2026-05-05 19:06 46.32467 8.51860 20961 ft 386 kts 212°
2026-05-05 19:07 46.30196 8.49855 20705 ft 385 kts 209°
2026-05-05 19:07 46.27728 8.48408 20441 ft 387 kts 197°
2026-05-05 19:07 46.25069 8.47772 20183 ft 389 kts 185°
2026-05-05 19:07 46.22382 8.47913 19932 ft 390 kts 178°
2026-05-05 19:08 46.19664 8.48288 19670 ft 388 kts 177°
2026-05-05 19:08 46.17010 8.48677 19408 ft 387 kts 176°
2026-05-05 19:08 46.14322 8.49076 19114 ft 387 kts 176°
2026-05-05 19:08 46.11680 8.49703 18994 ft 387 kts 171°
2026-05-05 19:09 46.09067 8.50671 18976 ft 391 kts 166°
2026-05-05 19:09 46.06473 8.51968 18984 ft 392 kts 163°
2026-05-05 19:09 46.03929 8.53332 18834 ft 387 kts 162°
2026-05-05 19:09 46.01451 8.54673 18437 ft 380 kts 162°
2026-05-05 19:10 45.98980 8.56010 18047 ft 373 kts 162°
2026-05-05 19:10 45.96592 8.57297 17709 ft 366 kts 162°
2026-05-05 19:10 45.94253 8.58553 17332 ft 359 kts 162°
2026-05-05 19:10 45.91909 8.59811 16999 ft 352 kts 162°
2026-05-05 19:11 45.89721 8.61283 16668 ft 349 kts 153°
2026-05-05 19:11 45.87739 8.63245 16318 ft 348 kts 146°
2026-05-05 19:11 45.85862 8.65404 16018 ft 343 kts 144°
2026-05-05 19:11 45.84023 8.67569 15637 ft 338 kts 144°
2026-05-05 19:12 45.82222 8.69678 15335 ft 333 kts 144°
2026-05-05 19:12 45.80446 8.71748 15024 ft 328 kts 144°
2026-05-05 19:12 45.78702 8.73772 14702 ft 324 kts 144°
2026-05-05 19:12 45.76936 8.75732 14378 ft 317 kts 148°
2026-05-05 19:13 45.75103 8.77415 14062 ft 311 kts 154°
2026-05-05 19:13 45.73224 8.78891 13751 ft 306 kts 155°
2026-05-05 19:13 45.71372 8.80313 13444 ft 301 kts 155°
2026-05-05 19:13 45.69522 8.81728 13131 ft 297 kts 155°
2026-05-05 19:14 45.67735 8.83096 12849 ft 293 kts 155°
2026-05-05 19:14 45.65923 8.84483 12457 ft 292 kts 155°
2026-05-05 19:14 45.64155 8.85839 12077 ft 291 kts 155°
2026-05-05 19:14 45.62373 8.87151 11724 ft 287 kts 160°
2026-05-05 19:15 45.60510 8.88032 11448 ft 278 kts 169°
2026-05-05 19:15 45.58632 8.88583 11163 ft 273 kts 172°
2026-05-05 19:15 45.56772 8.89076 10886 ft 268 kts 172°
2026-05-05 19:15 45.54973 8.89550 10600 ft 264 kts 171°
2026-05-05 19:16 45.53177 8.90030 10310 ft 260 kts 171°
2026-05-05 19:16 45.51426 8.90502 10030 ft 256 kts 171°
2026-05-05 19:16 45.49680 8.90974 9735 ft 252 kts 171°
2026-05-05 19:16 45.47979 8.91437 9419 ft 250 kts 171°
2026-05-05 19:17 45.46270 8.91902 9191 ft 244 kts 171°
2026-05-05 19:17 45.44637 8.92347 8973 ft 238 kts 171°
2026-05-05 19:17 45.43007 8.92788 8647 ft 237 kts 171°
2026-05-05 19:17 45.41395 8.93225 8295 ft 237 kts 171°
2026-05-05 19:18 45.39784 8.93661 7965 ft 235 kts 170°
2026-05-05 19:18 45.38180 8.94096 7631 ft 234 kts 170°
2026-05-05 19:18 45.36594 8.94525 7297 ft 233 kts 170°
2026-05-05 19:18 45.35004 8.94957 6947 ft 233 kts 170°
2026-05-05 19:19 45.33423 8.95385 6619 ft 231 kts 170°
2026-05-05 19:19 45.31842 8.95812 6296 ft 230 kts 170°
2026-05-05 19:19 45.30288 8.96233 6076 ft 224 kts 169°
2026-05-05 19:19 45.28792 8.96639 5905 ft 216 kts 169°
2026-05-05 19:20 45.27323 8.97039 5719 ft 209 kts 169°
2026-05-05 19:20 45.25907 8.97425 5455 ft 207 kts 169°
2026-05-05 19:20 45.24500 8.97806 5154 ft 207 kts 169°
2026-05-05 19:20 45.23101 8.98187 4992 ft 204 kts 170°
2026-05-05 19:21 45.21688 8.98569 4995 ft 206 kts 170°
2026-05-05 19:21 45.20273 8.98948 4987 ft 207 kts 170°
2026-05-05 19:21 45.18860 8.99325 4980 ft 207 kts 170°
2026-05-05 19:21 45.17445 8.99703 4982 ft 207 kts 170°
2026-05-05 19:22 45.16013 8.99809 4961 ft 206 kts 194°
2026-05-05 19:22 45.14794 8.98811 4976 ft 208 kts 229°
2026-05-05 19:22 45.14202 8.96955 4988 ft 212 kts 264°
2026-05-05 19:22 45.14475 8.94912 4995 ft 217 kts 298°
2026-05-05 19:23 45.15487 8.93308 5020 ft 221 kts 319°
2026-05-05 19:23 45.16699 8.92003 5007 ft 220 kts 322°
2026-05-05 19:23 45.17942 8.90754 4813 ft 217 kts 323°
2026-05-05 19:23 45.19155 8.89546 4554 ft 212 kts 323°
2026-05-05 19:24 45.20361 8.88340 4105 ft 216 kts 323°
2026-05-05 19:24 45.21583 8.87108 3691 ft 215 kts 325°
2026-05-05 19:24 45.22854 8.85963 3306 ft 214 kts 328°
2026-05-05 19:24 45.24102 8.84892 3021 ft 207 kts 329°
2026-05-05 19:25 45.25338 8.84002 2982 ft 192 kts 338°
2026-05-05 19:25 45.26588 8.83415 2994 ft 191 kts 346°
2026-05-05 19:25 45.27896 8.83004 3001 ft 191 kts 349°
2026-05-05 19:25 45.29195 8.82656 2999 ft 190 kts 350°
2026-05-05 19:26 45.30508 8.82312 2997 ft 191 kts 350°
2026-05-05 19:26 45.31811 8.81967 3000 ft 191 kts 350°
2026-05-05 19:26 45.33133 8.81613 3016 ft 198 kts 350°
2026-05-05 19:26 45.34488 8.81245 3016 ft 201 kts 349°
2026-05-05 19:27 45.35854 8.80870 3007 ft 201 kts 350°
2026-05-05 19:27 45.37232 8.80489 3004 ft 200 kts 350°
2026-05-05 19:27 45.38599 8.80110 2999 ft 200 kts 350°
2026-05-05 19:27 45.39959 8.79731 2999 ft 200 kts 350°
2026-05-05 19:28 45.41330 8.79350 3001 ft 199 kts 350°
2026-05-05 19:28 45.42652 8.78982 2985 ft 190 kts 350°
2026-05-05 19:28 45.43953 8.78621 2989 ft 189 kts 349°
2026-05-05 19:28 45.45234 8.78266 2993 ft 189 kts 349°
2026-05-05 19:29 45.46520 8.77910 2993 ft 189 kts 350°
2026-05-05 19:29 45.47817 8.77551 2992 ft 188 kts 350°
2026-05-05 19:29 45.49091 8.77198 2994 ft 187 kts 350°
2026-05-05 19:29 45.50348 8.76850 2925 ft 177 kts 350°
2026-05-05 19:30 45.51546 8.76519 2736 ft 176 kts 350°
2026-05-05 19:30 45.52735 8.76191 2491 ft 174 kts 350°
2026-05-05 19:30 45.53921 8.75864 2249 ft 173 kts 350°
2026-05-05 19:30 45.55098 8.75538 2015 ft 169 kts 350°
2026-05-05 19:31 45.56192 8.75236 1774 ft 154 kts 349°
2026-05-05 19:31 45.57198 8.74956 1547 ft 144 kts 349°
2026-05-05 19:31 45.58175 8.74684 1416 ft 143 kts 350°
2026-05-05 19:31 45.59160 8.74424 1240 ft 143 kts 349°
2026-05-05 19:32 45.60136 8.74164 1033 ft 142 kts 349°
2026-05-05 19:32 45.61109 8.73883 829 ft 141 kts 349°
2026-05-05 19:32 45.62058 8.73612 708 ft 138 kts 349°
2026-05-05 19:32 45.62743 8.73428 726 ft 58 kts 350°
2026-05-05 19:33 45.63045 8.73336 732 ft 36 kts 341°
2026-05-05 19:33 45.63214 8.73156 736 ft 25 kts 316°
2026-05-05 19:33 45.63313 8.72968 740 ft 22 kts 298°
2026-05-05 19:33 45.63380 8.72818 743 ft 0 kts 304°
2026-05-05 19:34 45.63382 8.72814 743 ft 0 kts 304°
2026-05-05 19:34 45.63389 8.72797 743 ft 3 kts 299°
2026-05-05 19:34 45.63401 8.72759 743 ft 5 kts 286°
2026-05-05 19:35 45.63414 8.72605 744 ft 10 kts 266°
2026-05-05 19:35 45.63395 8.72491 744 ft 13 kts 255°
2026-05-05 19:35 45.63372 8.72354 744 ft 15 kts 259°
2026-05-05 19:35 45.63351 8.72196 744 ft 17 kts 260°
2026-05-05 19:36 45.63332 8.72055 745 ft 2 kts 259°
2026-05-05 19:37 45.63323 8.72006 745 ft 7 kts 249°
2026-05-05 19:37 45.63276 8.71966 744 ft 9 kts 177°
2026-05-05 19:38 45.63197 8.71988 742 ft 13 kts 167°
2026-05-05 19:38 45.63090 8.72024 740 ft 17 kts 168°
2026-05-05 19:38 45.62961 8.72061 738 ft 20 kts 169°
2026-05-05 19:38 45.62817 8.72101 734 ft 17 kts 169°
2026-05-05 19:39 45.62708 8.72123 732 ft 15 kts 187°
2026-05-05 19:39 45.62669 8.72098 732 ft 1 kts 254°
2026-05-05 19:39 45.62665 8.72071 732 ft 4 kts 259°
2026-05-05 19:39 45.62665 8.72014 733 ft 6 kts 273°
2026-05-05 19:40 45.62665 8.71937 734 ft 8 kts 265°
2026-05-05 19:40 45.62655 8.71848 734 ft 9 kts 259°
2026-05-05 19:40 45.62642 8.71748 735 ft 11 kts 259°
2026-05-05 19:40 45.62627 8.71642 735 ft 7 kts 259°
2026-05-05 19:41 45.62613 8.71595 734 ft 4 kts 211°
2026-05-05 19:41 45.62574 8.71598 734 ft 6 kts 169°
2026-05-05 19:41 45.62565 8.71600 734 ft 0 kts 170°
2026-05-05 19:41 45.62555 8.71603 734 ft 2 kts 169°
2026-05-05 19:42 45.62543 8.71606 734 ft 0 kts 169°
2026-05-05 19:42 45.62538 8.71608 734 ft 0 kts 169°